SP6TSE-13 Weather Reports


time (UTC)temp
F
wind
direction
speed
knots
gust
knots
rain 1hr
in
rain 24hr
in
rain mn
in
humidity
%
barometer
mb
20260502214254 64 7.0 20.9 0.00 0.00 0.00 37 994.4
20260502213255 64 7.0 20.9 0.00 0.00 0.00 37 994.4
20260502212255 64 7.0 20.9 0.00 0.00 0.00 37 994.4
20260502211254 64 7.0 20.9 0.00 0.00 0.00 37 994.4
20260502210255 64 7.0 20.9 0.00 0.00 0.00 37 994.4
20260502205254 64 13.9 27.8 0.00 0.00 0.00 37 994.4
20260502204254 64 13.9 27.8 0.00 0.00 0.00 37 994.4
20260502203255 64 13.9 27.8 0.00 0.00 0.00 37 994.4
20260502202254 64 13.9 27.8 0.00 0.00 0.00 37 994.4
20260502201254 64 13.9 27.8 0.00 0.00 0.00 37 994.4
20260502200255 64 13.9 27.8 0.00 0.00 0.00 37 994.4
20260502195255 64 13.9 27.8 0.00 0.00 0.00 37 994.4
20260502194303 64 13.9 27.8 0.00 0.00 0.00 37 994.4
20260502193255 64 13.9 27.8 0.00 0.00 0.00 37 994.4
20260502192256 64 13.9 27.8 0.00 0.00 0.00 37 994.4
20260502191255 64 13.9 27.8 0.00 0.00 0.00 37 994.4
20260502190254 64 13.9 27.8 0.00 0.00 0.00 37 994.4
20260502185254 66 13.9 27.8 0.00 0.00 0.00 35 994.4
20260502184255 66 13.9 27.8 0.00 0.00 0.00 35 994.4
20260502183255 66 13.9 27.8 0.00 0.00 0.00 35 994.4
20260502182255 66 13.9 27.8 0.00 0.00 0.00 35 994.4
20260502181255 68 13.9 27.8 0.00 0.00 0.00 36 994.2
20260502180255 68 13.9 27.8 0.00 0.00 0.00 36 994.2
20260502170254 73 20.9 34.8 0.00 0.00 0.00 31 994.7
20260502164255 76 20.9 41.7 0.00 0.00 0.00 29 995.1
20260502163254 76 20.9 48.7 0.00 0.00 0.00 29 995.1
20260502162255 76 20.9 48.7 0.00 0.00 0.00 29 995.1
20260502161254 76 27.8 48.7 0.00 0.00 0.00 29 995.1
20260502160254 77 27.8 48.7 0.00 0.00 0.00 28 995.8
20260502152255 78 27.8 41.7 0.00 0.00 0.00 27 996.2
20260502151255 78 27.8 41.7 0.00 0.00 0.00 27 996.2
20260502150255 78 27.8 41.7 0.00 0.00 0.00 27 996.2
20260502130255 75 20.9 41.7 0.00 0.00 0.00 27 997.7
20260502123254 0 20.9 41.7 0.00 0.00 0.00
20260502122254 0 20.9 41.7 0.00 0.00 0.00
20260502121254 75 27.8 41.7 0.00 0.00 0.00 26 998.3
20260502120255 75 27.8 41.7 0.00 0.00 0.00 26 998.3
20260502115255 75 20.9 41.7 0.00 0.00 0.00 27 998.8
20260502114255 75 20.9 41.7 0.00 0.00 0.00 27 998.8
20260502113255 75 20.9 41.7 0.00 0.00 0.00 27 998.8
20260502112254 75 20.9 41.7 0.00 0.00 0.00 27 998.8
20260502111255 73 20.9 41.7 0.00 0.00 0.00 27 999.2
20260502110254 73 20.9 41.7 0.00 0.00 0.00 27 999.2
20260502105254 73 20.9 41.7 0.00 0.00 0.00 27 999.2
20260502104254 73 20.9 41.7 0.00 0.00 0.00 27 999.2
20260502103254 73 20.9 34.8 0.00 0.00 0.00 29 1000.1
20260502102254 73 20.9 34.8 0.00 0.00 0.00 29 1000.1
20260502101254 73 20.9 34.8 0.00 0.00 0.00 29 1000.1
20260502100255 73 20.9 34.8 0.00 0.00 0.00 29 1000.1
20260502091254 74 13.9 27.8 0.00 0.00 0.00 30 1000.4
20260502090255 74 13.9 27.8 0.00 0.00 0.00 30 1000.4
20260502071254 56 7.0 20.9 0.00 0.00 0.00 65 1000.7
20260502070255 56 7.0 20.9 0.00 0.00 0.00 65 1000.7
20260502065254 56 7.0 20.9 0.00 0.00 0.00 65 1000.7
20260502064254 56 7.0 20.9 0.00 0.00 0.00 65 1000.7
20260502063254 56 7.0 20.9 0.00 0.00 0.00 65 1000.7
20260502062254 56 7.0 20.9 0.00 0.00 0.00 65 1000.7
20260502061254 56 7.0 20.9 0.00 0.00 0.00 65 1000.7
20260502060254 56 7.0 20.9 0.00 0.00 0.00 65 1000.7
20260502055255 56 7.0 20.9 0.00 0.00 0.00 65 1000.7
20260502054254 44 7.0 20.9 0.00 0.00 0.00 86 1001.0
20260502053255 44 7.0 20.9 0.00 0.00 0.00 86 1001.0
20260502052254 44 7.0 20.9 0.00 0.00 0.00 86 1001.0
20260502051255 44 7.0 20.9 0.00 0.00 0.00 86 1001.0
20260502050254 44 7.0 20.9 0.00 0.00 0.00 86 1001.0
20260502045255 44 7.0 20.9 0.00 0.00 0.00 86 1001.0
20260502044254 44 7.0 20.9 0.00 0.00 0.00 86 1001.0
20260502043255 44 7.0 20.9 0.00 0.00 0.00 86 1001.0
20260502042255 46 7.0 20.9 0.00 0.00 0.00 76 1000.9
20260502041255 46 7.0 20.9 0.00 0.00 0.00 76 1000.9
20260502040255 46 7.0 20.9 0.00 0.00 0.00 76 1000.9
20260502035254 46 7.0 20.9 0.00 0.00 0.00 76 1000.9
20260502034254 46 7.0 20.9 0.00 0.00 0.00 81 1001.0
20260502033255 46 7.0 20.9 0.00 0.00 0.00 81 1001.0
20260502032255 46 7.0 20.9 0.00 0.00 0.00 81 1001.0
20260502031255 46 7.0 20.9 0.00 0.00 0.00 81 1001.0
20260502030255 46 7.0 20.9 0.00 0.00 0.00 81 1001.0
20260502025255 45 7.0 20.9 0.00 0.00 0.00 85 1000.9
20260502024255 45 7.0 20.9 0.00 0.00 0.00 85 1000.9
20260502023255 45 7.0 20.9 0.00 0.00 0.00 85 1000.9
20260502022255 45 7.0 20.9 0.00 0.00 0.00 85 1000.9
20260502021255 45 7.0 20.9 0.00 0.00 0.00 85 1000.9
20260502020255 45 7.0 20.9 0.00 0.00 0.00 85 1000.9
20260502015254 45 7.0 20.9 0.00 0.00 0.00 85 1000.9
20260502014254 45 7.0 20.9 0.00 0.00 0.00 85 1000.9
20260502013254 45 7.0 20.9 0.00 0.00 0.00 83 1001.1
20260502012255 45 7.0 20.9 0.00 0.00 0.00 83 1001.1
20260502011254 45 7.0 20.9 0.00 0.00 0.00 83 1001.1
20260502010254 45 7.0 20.9 0.00 0.00 0.00 83 1001.1
20260502005255 45 7.0 20.9 0.00 0.00 0.00 84 1001.4
20260502004255 45 7.0 20.9 0.00 0.00 0.00 84 1001.4
20260502003254 45 7.0 20.9 0.00 0.00 0.00 84 1001.4
20260502002255 45 7.0 20.9 0.00 0.00 0.00 84 1001.4
20260502001254 45 7.0 20.9 0.00 0.00 0.00 84 1001.4
20260502000255 46 7.0 20.9 0.00 0.00 0.00 78 1001.3
20260501235255 46 7.0 20.9 0.00 0.00 0.00 78 1001.3
20260501234255 46 7.0 20.9 0.00 0.00 0.00 78 1001.3
20260501233254 46 7.0 20.9 0.00 0.00 0.00 78 1001.3
20260501232254 47 7.0 20.9 0.00 0.00 0.00 76 1001.5
20260501231254 47 7.0 20.9 0.00 0.00 0.00 76 1001.5
20260501230255 47 7.0 20.9 0.00 0.00 0.00 76 1001.5
20260501225254 47 7.0 20.9 0.00 0.00 0.00 76 1001.5
20260501224255 48 7.0 20.9 0.00 0.00 0.00 74 1001.5
20260501223254 48 7.0 20.9 0.00 0.00 0.00 74 1001.5
20260501222255 48 7.0 20.9 0.00 0.00 0.00 74 1001.5
20260501221255 48 7.0 20.9 0.00 0.00 0.00 74 1001.5
20260501220255 48 7.0 20.9 0.00 0.00 0.00 73 1001.6
20260501215255 48 7.0 20.9 0.00 0.00 0.00 73 1001.6